Vertical_Velocity
3 -1 -1 -3 -1 -1 0 -1 -1 -1 -0 -0 -1 -1 0 -0 -1 0 -1 -1 1 -1 0 6 -0 1 -0 -2 -2 -0 1 -1 -2 -1 -2 -2 0 -1 -2 -2 -2 1 -0
-0 -0 -1 -2 -0 -1 0 0 1 1 -0 0 -1 -2 0 -0 -1 -1 -2 0 -1 -2 -1 3 -1 -3 -3 -2 -1 -2 -2 -2 -1 -0 1 0 -0 -1 -1 1 -1 -1 -1
2 -0 -0 -2 -0 -0 -2 1 2 1 -2 -2 -1 -1 -1 -1 -1 -2 -2 0 -1 -0 1 7 -1 1 0 0 -0 -0 -0 -1 -1 -1 -2 -1 -1 -1 -1 -2 -2 -2 -1
3 -1 -1 -3 -1 1 -0 -0 0 -0 -0 2 -1 -1 0 0 -0 -1 0 3 0 -1 1 -2 -0 0 -1 -1 -1 -1 -2 -1 -1 -2 9 8 1 -1 -0 -0 0 0 -1
3 1 -3 -1 -1 -0 -2 -1 0 1 1 -3 -0 -1 -1 -1 0 0 -2 -0 -1 -1 -1 -1 0 0 0 0 0 1 1 1 -1 0 4 -6 0 -0 -0 -0 -1 0 1
1 6 -1 -2 -0 -2 1 -1 -1 1 -2 -1 -0 -1 -1 0 -1 -0 -1 -0 -0 -2 -1 -0 -0 -0 -0 -1 -2 -1 -1 -1 -2 -1 3 -4 -4 0 1 1 3 0 2
3 6 -1 -0 -2 -0 -0 0 -1 1 0 -1 0 0 -0 -0 -0 -0 -1 -1 -1 0 0 -0 0 -0 -1 -0 -1 -1 -3 -1 3 -4 -2 2 -4 -3 -4 -1 -1 -1 -2
-1 1 -2 -1 -0 -1 -0 2 -1 1 1 -1 -0 -0 -0 -0 -1 -1 -0 -1 -0 -2 -1 0 -1 -2 -2 -3 -1 -1 -0 -3 8 -1 -3 -4 -2 1 -2 -0 -1 -3 -3
0 2 -4 -2 -1 -2 -1 2 1 -0 -1 -1 0 1 -0 -0 0 -1 -0 -1 -2 -2 -2 -1 -2 -1 -1 -2 -2 -1 -2 -1 3 -4 2 8 -0 0 -2 -2 -3 -3 -2
-1 4 -2 -0 -2 -2 -1 -2 2 1 2 -0 0 -2 1 0 1 -1 -0 -2 -2 -0 -2 -2 -2 -1 -1 0 0 -1 0 -1 1 -2 -1 -4 1 1 -3 -3 -3 -2 -2
1 -0 4 2 -0 -1 -1 -1 1 -1 -0 -2 1 -2 -3 -2 0 2 -1 -0 -1 -4 -2 -1 -2 -0 -1 -0 -1 -1 -0 2 1 -1 5 -2 2 1 -1 -1 0 -2 -0
1 0 3 2 0 2 1 -3 0 -0 1 -1 1 -3 -3 0 -2 -0 -1 1 -1 -2 -2 -1 -1 1 -0 -2 -2 0 -2 -1 1 2 -3 -2 -1 -3 -1 -0 0 -1 -1
-3 1 1 -1 1 0 -0 3 -1 0 -1 -0 -7 -7 -4 -1 2 -2 -2 -1 -3 0 -1 -0 -2 2 -1 1 -2 1 -1 -2 1 -1 -3 -2 0 -4 -2 -2 -2 -1 -2
-1 -1 -4 3 1 0 0 -2 1 -1 -2 -1 4 6 0 2 0 -4 -7 -2 -1 -2 -5 -5 -3 2 -1 -1 -1 1 -1 -1 -2 1 -3 -2 -1 -0 -1 -2 -3 0 1
1 1 -0 1 -0 -3 -1 1 -0 -0 -1 -1 -1 -3 -4 -1 0 -0 6 -4 2 3 2 0 -1 -1 -1 -1 -0 0 1 -0 -2 -1 -4 -2 -0 -2 -2 -2 0 -2 -2
3 3 -1 -1 -2 -2 -1 1 6 4 3 1 1 -1 -0 -1 -2 -2 -0 2 -7 6 0 0 -2 -1 -2 -3 -3 -1 -2 -1 -1 -1 1 -3 0 -1 1 0 -1 -0 -0
6 3 -2 -2 -0 -2 1 0 -3 -8 2 1 1 4 1 0 -4 -4 -4 -2 -3 0 2 3 6 2 -1 -1 -1 0 -1 -1 -0 -1 3 -4 -1 -2 -1 -1 1 -0 -1
-3 -2 4 7 -2 -3 -2 1 -0 0 1 1 -2 -1 0 4 3 -2 -3 -1 -10 -5 -2 2 2 1 2 1 0 -3 -1 -1 -1 -1 -2 3 -2 -3 0 -0 -1 -1 -0
-3 -0 -0 -2 3 3 3 -3 -3 3 -1 4 2 -2 -6 2 2 4 3 -1 2 -4 -3 -2 -2 1 -0 -2 3 -0 -1 -3 -1 -1 -2 -1 -1 2 -2 -2 -0 -1 -1
8 5 4 6 -1 -2 6 1 7 -5 0 -1 -3 2 6 -1 -2 -1 2 4 5 2 -2 -4 -1 -1 2 0 1 1 0 3 -0 -2 0 -0 -1 2 1 -4 -0 -0 1
-2 -2 -2 0 -1 -1 -2 1 11 -9 -2 2 -2 4 1 1 4 2 -3 1 -1 -0 -0 -1 -1 0 3 4 1 3 1 -0 2 0 0 -1 -0 -2 -0 -2 -1 -3 2
1 4 3 0 -0 -2 -0 0 8 -2 -7 -0 3 -1 3 1 -4 1 2 3 1 3 3 -1 0 1 2 3 -4 4 0 -2 -1 -1 0 1 0 -1 -0 -0 1 -0 -1
3 -2 -2 -0 -1 1 2 3 -1 7 7 1 -5 -2 -2 8 10 4 2 2 9 8 -4 2 -2 -1 1 1 2 -4 -0 -5 0 -2 -0 0 2 -2 1 1 2 -1 -1
1 0 0 -0 -0 -1 1 2 1 1 -1 -3 2 5 -6 -0 2 4 5 2 -2 0 0 -0 9 1 5 -9 16 -6 -0 -1 -3 -2 -1 2 1 1 0 0 1 0 1
0 0 -0 -0 0 -1 0 1 2 1 -3 -1 2 -2 -4 2 -3 1 2 2 7 1 6 4 5 -7 -2 5 -2 1 3 4 2 -2 -3 -6 2 -0 1 1 1 2 1
-2 -1 -2 -1 2 1 0 0 0 0 4 9 4 4 5 6 6 3 2 4 2 5 -2 3 9 9 -0 9 -3 -3 -5 -4 -8 -2 2 -1 7 -3 5 3 1 1 -1
Height
1517 1515 1518 1521 1524 1526 1528 1530 1532 1533 1535 1536 1537 1537 1538 1538 1539 1540 1540 1539 1539 1539 1540 1542 1542 1543 1544 1544 1545 1545 1546 1546 1547 1547 1547 1547 1547 1547 1547 1547 1547 1548 1547
1516 1516 1519 1521 1524 1527 1529 1531 1533 1534 1536 1536 1537 1537 1537 1538 1539 1539 1540 1540 1540 1541 1542 1543 1544 1544 1545 1545 1545 1546 1547 1547 1548 1548 1549 1548 1548 1548 1548 1548 1548 1548 1548
1518 1517 1520 1522 1525 1528 1530 1532 1533 1535 1536 1536 1537 1537 1537 1538 1539 1539 1540 1541 1542 1543 1544 1545 1546 1546 1546 1546 1546 1547 1547 1548 1549 1551 1552 1553 1551 1550 1550 1550 1550 1550 1550
1520 1519 1521 1523 1526 1529 1531 1533 1534 1536 1537 1537 1537 1537 1538 1538 1539 1540 1542 1543 1543 1544 1546 1547 1547 1548 1547 1547 1547 1548 1549 1550 1551 1552 1556 1557 1554 1553 1552 1552 1552 1553 1553
1521 1523 1522 1524 1527 1530 1532 1534 1535 1537 1537 1537 1538 1538 1539 1539 1540 1541 1543 1544 1545 1546 1548 1548 1549 1549 1549 1549 1550 1550 1551 1552 1553 1555 1556 1555 1555 1554 1554 1554 1554 1554 1554
1523 1525 1522 1524 1527 1530 1533 1534 1536 1538 1538 1538 1539 1539 1540 1540 1541 1542 1543 1545 1546 1548 1549 1549 1550 1550 1551 1552 1552 1553 1553 1554 1555 1557 1558 1557 1556 1556 1556 1555 1556 1555 1555
1524 1525 1523 1525 1528 1531 1533 1536 1537 1539 1539 1539 1540 1541 1542 1542 1543 1543 1544 1545 1547 1549 1550 1551 1551 1551 1552 1553 1553 1554 1555 1556 1557 1559 1559 1558 1557 1556 1557 1557 1556 1557 1556
1525 1526 1523 1525 1529 1531 1533 1536 1538 1539 1540 1540 1541 1542 1544 1544 1545 1545 1546 1547 1548 1550 1551 1551 1552 1553 1553 1554 1555 1555 1556 1557 1560 1560 1560 1558 1558 1557 1557 1557 1557 1556 1556
1525 1527 1524 1526 1529 1531 1533 1535 1537 1539 1541 1541 1542 1543 1544 1545 1546 1547 1548 1549 1549 1550 1551 1552 1553 1554 1554 1555 1555 1556 1557 1558 1559 1559 1560 1560 1558 1557 1557 1557 1557 1556 1555
1525 1527 1526 1528 1530 1531 1532 1535 1536 1538 1540 1542 1544 1544 1544 1546 1547 1548 1549 1549 1550 1551 1552 1553 1554 1554 1555 1556 1556 1557 1557 1558 1560 1559 1560 1558 1558 1557 1557 1557 1556 1555 1554
1524 1527 1529 1531 1531 1533 1534 1534 1535 1537 1539 1542 1543 1544 1545 1546 1547 1547 1548 1550 1550 1551 1552 1553 1554 1555 1556 1556 1557 1557 1558 1559 1559 1560 1559 1558 1558 1557 1557 1556 1556 1554 1554
1522 1526 1529 1531 1532 1534 1536 1534 1535 1537 1539 1541 1542 1543 1546 1549 1549 1549 1549 1549 1550 1551 1552 1553 1555 1555 1555 1556 1557 1557 1558 1559 1559 1560 1556 1557 1557 1556 1557 1556 1555 1554 1553
1519 1525 1528 1529 1531 1533 1534 1535 1536 1538 1540 1541 1541 1542 1546 1549 1549 1549 1548 1549 1550 1551 1552 1553 1554 1555 1555 1556 1557 1558 1557 1557 1559 1560 1555 1556 1556 1556 1556 1555 1554 1554 1554
1518 1519 1522 1527 1529 1531 1533 1533 1536 1537 1538 1541 1543 1545 1546 1547 1548 1548 1548 1549 1549 1550 1551 1552 1554 1554 1554 1555 1556 1556 1556 1556 1557 1558 1554 1554 1554 1554 1554 1553 1553 1554 1553
1517 1518 1518 1521 1523 1526 1530 1532 1534 1535 1536 1537 1538 1540 1542 1544 1545 1547 1549 1547 1551 1551 1552 1552 1553 1552 1553 1553 1554 1554 1554 1554 1555 1556 1552 1552 1552 1553 1553 1553 1553 1553 1553
1516 1518 1518 1518 1519 1522 1523 1528 1531 1533 1534 1534 1535 1535 1537 1539 1542 1544 1546 1545 1547 1550 1549 1548 1549 1549 1549 1550 1551 1552 1552 1553 1553 1553 1552 1549 1550 1550 1551 1551 1551 1551 1552
1514 1516 1517 1517 1517 1518 1520 1522 1524 1528 1531 1532 1533 1533 1533 1534 1536 1539 1541 1540 1542 1547 1547 1547 1546 1545 1546 1546 1548 1548 1548 1550 1549 1550 1551 1548 1547 1548 1549 1549 1550 1550 1550
1511 1513 1515 1516 1516 1518 1519 1518 1520 1522 1525 1528 1529 1531 1531 1530 1530 1532 1533 1536 1537 1541 1543 1543 1543 1542 1543 1542 1544 1545 1546 1546 1546 1548 1548 1548 1545 1545 1546 1546 1547 1547 1548
1507 1509 1511 1512 1514 1516 1517 1516 1516 1518 1519 1521 1525 1526 1527 1528 1528 1527 1528 1530 1533 1534 1537 1538 1538 1537 1538 1540 1541 1540 1541 1542 1543 1544 1544 1543 1544 1544 1543 1543 1544 1545 1546
1503 1504 1506 1508 1509 1511 1514 1515 1513 1512 1514 1516 1518 1520 1520 1520 1522 1523 1524 1525 1527 1527 1528 1530 1532 1532 1534 1535 1537 1537 1537 1538 1538 1539 1539 1540 1540 1540 1541 1539 1542 1542 1543
1497 1499 1500 1502 1503 1505 1507 1508 1507 1505 1507 1509 1511 1514 1516 1516 1517 1517 1518 1520 1522 1522 1521 1523 1525 1527 1528 1531 1532 1532 1532 1533 1533 1533 1534 1535 1535 1535 1537 1537 1538 1539 1540
1492 1493 1494 1496 1497 1498 1499 1501 1502 1500 1499 1501 1503 1505 1508 1509 1511 1511 1511 1512 1514 1515 1517 1518 1518 1520 1522 1523 1524 1528 1529 1528 1527 1528 1529 1529 1530 1530 1532 1533 1534 1535 1536
1487 1486 1487 1488 1489 1491 1492 1493 1494 1496 1496 1496 1495 1496 1497 1500 1502 1504 1504 1505 1507 1508 1509 1510 1512 1513 1513 1515 1518 1521 1523 1521 1520 1521 1522 1524 1525 1525 1527 1529 1530 1530 1532
1483 1483 1483 1483 1483 1484 1485 1485 1486 1488 1489 1490 1492 1492 1491 1492 1493 1496 1498 1498 1499 1501 1502 1502 1503 1505 1507 1507 1510 1512 1513 1514 1515 1517 1517 1517 1520 1521 1521 1523 1524 1525 1526
1482 1481 1481 1481 1480 1480 1480 1480 1481 1482 1484 1485 1487 1487 1487 1487 1485 1486 1488 1492 1492 1491 1493 1494 1495 1496 1497 1500 1501 1503 1507 1508 1509 1510 1509 1511 1512 1514 1516 1517 1518 1520 1520
1481 1479 1479 1479 1479 1478 1477 1476 1476 1475 1477 1480 1480 1481 1481 1482 1481 1480 1480 1481 1483 1484 1485 1485 1487 1488 1489 1491 1493 1495 1497 1498 1499 1501 1504 1505 1506 1507 1510 1511 1512 1513 1514